This is the latest recevied weather packets stored in our database for station/object KC1TEM-13. If no packets are shown the sender has not sent any weather packets the latest 10 day(s).
| Time | Temp. | Humidity | Pressure | Rain* | Wind** | Luminosity | Snow |
|---|---|---|---|---|---|---|---|
| 1778028353 | 21.67° C | 47% | 1008.3 hPa | 0 mm | - | 0 W/m² | - |
| 1778028049 | 21.67° C | 47% | 1008.1 hPa | 0 mm | - | 0 W/m² | - |
| 1778027745 | 21.67° C | 47% | 1008.1 hPa | 0 mm | - | 0 W/m² | - |
| 1778027442 | 21.67° C | 46% | 1007.8 hPa | 0 mm | - | 0 W/m² | - |
| 1778027138 | 21.67° C | 46% | 1007.9 hPa | 0 mm | - | 0 W/m² | - |
| 1778026833 | 22.22° C | 45% | 1007.5 hPa | 0 mm | - | 0 W/m² | - |
| 1778026530 | 22.22° C | 45% | 1007.5 hPa | 0 mm | - | 0 W/m² | - |
| 1778026227 | 22.22° C | 45% | 1007.4 hPa | 0 mm | - | 0 W/m² | - |
| 1778025925 | 22.22° C | 45% | 1007.2 hPa | 0 mm | - | 0 W/m² | - |
| 1778025623 | 22.78° C | 44% | 1007.3 hPa | 0 mm | - | 0 W/m² | - |
| 1778025321 | 22.78° C | 45% | 1007.4 hPa | 0 mm | - | 1 W/m² | - |
| 1778025017 | 22.78° C | 45% | 1007.2 hPa | 0 mm | - | 2 W/m² | - |
| 1778024714 | 22.78° C | 45% | 1007 hPa | 0 mm | - | 3 W/m² | - |
| 1778024410 | 22.78° C | 45% | 1006.9 hPa | 0 mm | - | 6 W/m² | - |
| 1778024108 | 22.78° C | 44% | 1006.8 hPa | 0 mm | - | 9 W/m² | - |
| 1778023805 | 23.33° C | 44% | 1006.7 hPa | 0 mm | - | 11 W/m² | - |
| 1778023503 | 23.33° C | 43% | 1006.6 hPa | 0 mm | - | 13 W/m² | - |
| 1778023200 | 23.33° C | 43% | 1006.6 hPa | 0 mm | - | 16 W/m² | - |
| 1778022897 | 23.89° C | 43% | 1006.6 hPa | 0 mm | - | 19 W/m² | - |
| 1778022596 | 23.89° C | 43% | 1006.3 hPa | 0 mm | - | 23 W/m² | - |
| 1778022293 | 23.89° C | 42% | 1006.1 hPa | 0 mm | - | 27 W/m² | - |
| 1778021989 | 23.89° C | 42% | 1006.1 hPa | 0 mm | - | 33 W/m² | - |
| 1778021686 | 24.44° C | 41% | 1006.3 hPa | 0 mm | - | 42 W/m² | - |
| 1778021382 | 24.44° C | 40% | 1006 hPa | 0 mm | - | 49 W/m² | - |
| 1778021079 | 25° C | 39% | 1006 hPa | 0 mm | - | 57 W/m² | - |
* Rain latest hour (hover to see other rain measurements)
** Current wind speed in m/s (hover to see current wind gust speed)